Location: Burla
(50.9568°N, 10.4983°E)
Time: 07:01:03
(UTC+00:00)

SMAP - Pass Details

Date: 18 January 2026
Orbit: 682 x 683 km, 98.1° (Epoch: 17 February)

Event Time Altitude Azimuth Distance (km) Brightness Sun altitude
Rises 05:12:46 0° 19° (NNE) 3,059 6.5 -18.2°
Reaches altitude 10° 05:15:08 10° 27° (NNE) 2,139 5.8 -17.8°
Maximum altitude 05:19:34 42° 98° (E) 978 4.4 -17.2°
Drops below altitude 10° 05:23:58 10° 169° (S) 2,122 5.9 -16.5°
Sets 05:26:18 0° 177° (S) 3,032 6.6 -16.1°
